Charlottesville, VA

5:24 PM EST on December 03, 2016 (GMT -0500)
Charlottesville-Albemarle

Weather History for KCHO - December, 2010

Change the Weather History Date:

Tuesday, December 14, 2010

  Actual Average Record
Temperature  
Mean Temperature 23 °F 38 °F  
Max Temperature 29 °F 47 °F 73 °F (1929)
Min Temperature 16 °F 29 °F 10 °F (1962)
Degree Days  
Heating Degree Days 42 27  
Month to date heating degree days 452 355  
Since 1 July heating degree days 1159 1246  
Cooling Degree Days 0 0  
Month to date cooling degree days 0 0  
Year to date cooling degree days 1713 1035  
Moisture  
Dew Point -2 °F    
Average Humidity 33    
Maximum Humidity 45    
Minimum Humidity 21    
Precipitation  
Precipitation 0.00 in 0.11 in 1.04 in (2003)
Month to date precipitation 1.97 1.66  
Year to date precipitation 35.19 41.22  
Sea Level Pressure  
Sea Level Pressure 29.85 in    
Wind  
Wind Speed 9 mph (NW)    
Max Wind Speed 18 mph    
Max Gust Speed 25 mph    
Visibility 10 miles    
Events      
T = Trace of Precipitation, MM = Missing Value Source: NWS Daily Summary

Daily Weather History Graph

Daily Weather History Graph

Search for Another Location

Airport or City:

Trip Planner

Search our weather history database for the weather conditions in past years. The results will help you decide how hot, cold, wet, or windy it might be!

Date:

Astronomy

Dec. 14, 2010 Rise Set
Actual Time 7:22 AM EST 4:54 PM EST
Civil Twilight 6:52 AM EST 5:24 PM EST
Nautical Twilight 6:19 AM EST 5:57 PM EST
Astronomical Twilight 5:47 AM EST 6:29 PM EST
Moon 12:30 PM EST (12/14) 12:45 AM EST (12/14)
Length of Visible Light 10h 31m
Length of Day
9h 32m
First Quarter, 61% of the Moon is Illuminated
Dec 14
First Quarter
Dec 21
Full
Dec 27
Last Quarter
Jan 4
New
Jan 12
First Quarter

Hourly Weather History & Observations

Time (EST) Temp. Windchill Dew Point Humidity Pressure Visibility Wind Dir Wind Speed Gust Speed Precip Events Conditions
12:53 AM 21.0 °F 14.6 °F 1.0 °F 42% 29.67 in 10.0 mi Variable 4.6 mph - N/A   Partly Cloudy
1:53 AM 21.0 °F 16.2 °F 1.0 °F 42% 29.70 in 10.0 mi Variable 3.5 mph - N/A   Mostly Cloudy
3:53 AM 19.9 °F 13.4 °F 1.0 °F 44% 29.72 in 10.0 mi Variable 4.6 mph - N/A   Partly Cloudy
4:53 AM 19.9 °F 14.9 °F 1.0 °F 44% 29.74 in 10.0 mi Variable 3.5 mph - N/A   Partly Cloudy
5:53 AM 19.0 °F 10.0 °F 1.0 °F 46% 29.75 in 10.0 mi Variable 6.9 mph 19.6 mph N/A   Clear
6:53 AM 19.0 °F 10.0 °F -0.0 °F 43% 29.78 in 10.0 mi Variable 6.9 mph 17.3 mph N/A   Partly Cloudy
7:53 AM 19.9 °F 12.1 °F -0.9 °F 40% 29.81 in 10.0 mi Variable 5.8 mph - N/A   Scattered Clouds
8:53 AM 21.9 °F 15.7 °F -2.0 °F 35% 29.83 in 10.0 mi Variable 4.6 mph 18.4 mph N/A   Partly Cloudy
9:53 AM 23.0 °F 13.1 °F -2.0 °F 34% 29.83 in 10.0 mi WNW 9.2 mph 21.9 mph N/A   Clear
11:53 AM 25.0 °F 14.2 °F -2.9 °F 30% 29.82 in 10.0 mi West 11.5 mph 20.7 mph N/A   Clear
12:53 PM 26.1 °F 14.5 °F -4.0 °F 27% 29.82 in 10.0 mi WNW 13.8 mph 23.0 mph N/A   Clear
1:53 PM 27.0 °F 13.9 °F -6.0 °F 24% 29.82 in 10.0 mi West 18.4 mph 25.3 mph N/A   Clear
2:53 PM 28.0 °F 17.0 °F -7.1 °F 22% 29.83 in 10.0 mi NNW 13.8 mph 25.3 mph N/A   Clear
3:53 PM 27.0 °F 15.6 °F -7.1 °F 23% 29.85 in 10.0 mi NNW 13.8 mph 25.3 mph N/A   Clear
4:53 PM 24.1 °F 12.0 °F -6.0 °F 27% 29.88 in 10.0 mi NNW 13.8 mph 25.3 mph N/A   Clear
5:53 PM 23.0 °F 10.6 °F -5.1 °F 29% 29.91 in 10.0 mi NNW 13.8 mph 25.3 mph N/A   Clear
6:53 PM 21.9 °F 10.4 °F -2.9 °F 34% 29.92 in 10.0 mi NW 11.5 mph 23.0 mph N/A   Clear
7:34 PM 21.2 °F 8.3 °F -2.2 °F 36% 29.91 in 10.0 mi NW 13.8 mph - N/A   Clear
7:53 PM 21.9 °F 9.2 °F -0.9 °F 37% 29.94 in 10.0 mi NW 13.8 mph - N/A   Clear
8:53 PM 21.0 °F 8.1 °F -0.9 °F 38% 29.95 in 10.0 mi NW 13.8 mph - N/A   Clear
9:51 PM 19.4 °F 6.0 °F -0.4 °F 42% 29.94 in 10.0 mi NW 13.8 mph - N/A   Clear
9:53 PM 21.0 °F 8.1 °F -0.9 °F 38% 29.96 in 10.0 mi NW 13.8 mph - N/A   Clear
10:53 PM 19.0 °F - -0.0 °F 43% 29.97 in 10.0 mi Calm Calm - N/A   Clear
11:53 PM 16.0 °F 10.4 °F 1.9 °F 54% 29.96 in 10.0 mi West 3.5 mph - N/A   Clear